Location: Utrecht
(52.0907°N, 5.1214°E)
Time: 19:43:45
(UTC+02:00)

KKS-1 - Pass Details

Date: 06 July 2022
Orbit: 634 x 649 km, 98.2° (Epoch: 18 August)

Event Time Altitude Azimuth Distance (km) Brightness Sun altitude
Rises 01:18:35 0° 5° (N) 2,980 ? -15.0°
Reaches altitude 10° 01:21:16 10° 349° (NNW) 2,063 ? -15.0°
Maximum altitude 01:24:31 20° 302° (WNW) 1,499 ? -15.1°
Drops below altitude 10° 01:27:45 10° 256° (WSW) 2,048 ? -15.1°
Enters shadow 01:30:13 - 240° (WSW) 2,880 ? -15.1°
